Location: Altmatt
(47.1333°N, 8.7000°E)
Time: 18:13:43
(UTC+00:00)

NOSS 3-4 (C) - Pass Details

Date: 13 July 2020
Orbit: 891 x 1321 km, 63.4° (Epoch: 12 July)

Event Time Altitude Azimuth Distance (km) Brightness Sun altitude
Rises 19:48:57 0° 320° (NW) 3,784 8.9 -5.0°
Reaches altitude 10° 19:51:30 10° 323° (NW) 2,887 7.6 -5.3°
Maximum altitude 19:58:22 68° 46° (NE) 1,224 4.1 -6.2°
Drops below altitude 10° 20:06:00 10° 130° (SE) 3,186 5.5 -7.2°
Enters shadow 20:06:27 - 130° (SE) 3,341 5.6 -7.2°
